Valparaiso, FL

9:26 PM CDT on August 18, 2017 (GMT -0500)
Eglin Air Force Base

Weather History for KVPS - November, 2012

Change the Weather History Date:

Thursday, November 15, 2012

  Actual Average Record
Temperature  
Mean Temperature 55 °F -  
Max Temperature 60 °F 70 °F 82 °F (1955)
Min Temperature 50 °F 45 °F 20 °F (1969)
Degree Days  
Heating Degree Days 10    
Growing Degree Days 5 (Base 50)    
Moisture  
Dew Point 48 °F    
Average Humidity 80    
Maximum Humidity 95    
Minimum Humidity 63    
Precipitation  
Precipitation 0.00 in - - ()
Sea Level Pressure  
Sea Level Pressure 30.23 in    
Wind  
Wind Speed 8 mph (NNE)    
Max Wind Speed 12 mph    
Max Gust Speed -    
Visibility 9 miles    
Events      
Averages and records for this station are not official NWS values.
T = Trace of Precipitation, MM = Missing Value Source: NWS Daily Summary

Daily Weather History Graph

Daily Weather History Graph

Search for Another Location

Airport or City:

Trip Planner

Search our weather history database for the weather conditions in past years. The results will help you decide how hot, cold, wet, or windy it might be!

Date:

Astronomy

Nov. 15, 2012 Rise Set
Actual Time 6:12 AM CST 4:48 PM CST
Civil Twilight 5:46 AM CST 5:14 PM CST
Nautical Twilight 5:17 AM CST 5:43 PM CST
Astronomical Twilight 4:49 AM CST 6:12 PM CST
Moon 8:02 AM CST (11/15) 6:44 PM CST (11/15)
Length of Visible Light 11h 27m
Length of Day
10h 36m
Waxing Crescent, 5% of the Moon is Illuminated
Nov 15
Waxing Crescent
Nov 20
First Quarter
Nov 28
Full
Dec 6
Last Quarter
Dec 13
New

Hourly Weather History & Observations

Time (CST) Temp. Dew Point Humidity Pressure Visibility Wind Dir Wind Speed Gust Speed Precip Events Conditions
12:58 AM 54.5 °F 52.9 °F 94% 30.22 in 10.0 mi NNE 6.9 mph - N/A   Overcast
1:55 AM 54.3 °F 52.3 °F 93% 30.20 in 10.0 mi North 5.8 mph - N/A   Overcast
2:55 AM 53.8 °F 51.8 °F 93% 30.20 in 10.0 mi North 9.2 mph - N/A   Overcast
3:56 AM 53.1 °F 51.4 °F 94% 30.20 in 8.0 mi North 6.9 mph - N/A   Overcast
4:57 AM 52.9 °F 51.1 °F 94% 30.22 in 7.0 mi North 8.1 mph - N/A   Overcast
5:56 AM 52.5 °F 51.1 °F 95% 30.23 in 10.0 mi NNE 6.9 mph - N/A   Overcast
6:29 AM 51.8 °F 50.0 °F 94% 30.22 in 7.0 mi North 6.9 mph - N/A   Overcast
6:55 AM 52.2 °F 50.5 °F 94% 30.24 in 5.0 mi NNE 5.8 mph - N/A   Overcast
7:55 AM 52.3 °F 50.2 °F 92% 30.25 in 6.0 mi North 9.2 mph - N/A   Overcast
8:45 AM 53.6 °F 48.2 °F 82% 30.24 in 7.0 mi North 9.2 mph - N/A   Overcast
8:55 AM 54.0 °F 49.3 °F 84% 30.27 in 7.0 mi North 10.4 mph - N/A   Mostly Cloudy
9:31 AM 55.4 °F 48.2 °F 77% 30.24 in 10.0 mi North 6.9 mph - N/A   Mostly Cloudy
9:44 AM 55.4 °F 48.2 °F 77% 30.25 in 10.0 mi North 9.2 mph - N/A   Mostly Cloudy
9:55 AM 56.5 °F 48.9 °F 76% 30.25 in 7.0 mi NNE 11.5 mph - N/A   Mostly Cloudy
10:41 AM 59.0 °F 50.0 °F 72% 30.25 in 10.0 mi NNE 9.2 mph - N/A   Mostly Cloudy
10:55 AM 60.1 °F 49.1 °F 67% 30.25 in 10.0 mi NNE 10.4 mph - N/A   Mostly Cloudy
11:55 AM 60.3 °F 48.2 °F 64% 30.23 in 10.0 mi NNE 10.4 mph - N/A   Mostly Cloudy
12:55 PM 59.4 °F 46.9 °F 63% 30.21 in 10.0 mi NE 10.4 mph - N/A   Mostly Cloudy
1:55 PM 57.2 °F 46.6 °F 68% 30.22 in 10.0 mi ENE 6.9 mph - N/A   Mostly Cloudy
2:55 PM 56.1 °F 46.9 °F 71% 30.22 in 10.0 mi North 11.5 mph - N/A   Mostly Cloudy
3:55 PM 55.0 °F 46.4 °F 73% 30.22 in 10.0 mi NNE 11.5 mph - N/A   Mostly Cloudy
4:55 PM 55.0 °F 45.9 °F 71% 30.22 in 10.0 mi NE 10.4 mph - N/A   Mostly Cloudy
5:55 PM 54.3 °F 45.0 °F 71% 30.23 in 10.0 mi NNE 8.1 mph - N/A   Mostly Cloudy
6:55 PM 53.8 °F 44.1 °F 70% 30.24 in 10.0 mi NE 10.4 mph - N/A   Mostly Cloudy
7:55 PM 52.5 °F 44.1 °F 73% 30.25 in 10.0 mi NNE 10.4 mph - N/A   Mostly Cloudy
8:55 PM 51.8 °F 43.9 °F 74% 30.25 in 10.0 mi NNE 8.1 mph - N/A   Mostly Cloudy
9:55 PM 51.1 °F 43.7 °F 76% 30.25 in 10.0 mi NNE 8.1 mph - N/A   Overcast
10:55 PM 50.7 °F 43.9 °F 77% 30.27 in 10.0 mi ENE 9.2 mph - N/A   Overcast
11:57 PM 50.4 °F 44.6 °F 81% 30.26 in 10.0 mi NE 8.1 mph - N/A   Overcast